Zurück zum Katalog

DELTA 1 DEB

AktivSSO
NORAD 7846·DEBRIS·🇺🇸 United States

Gestartet Jul 23, 1972 von Vandenberg Space Force Base

Loading…

Nächste Überflüge (nächste 24 Stunden)

TLE

AktuellSource: Space-Track

Epoche: Sep 14, 2026, 05:26 UTC

1 07846U 72058S   26257.22639748  .00000206  00000-0  56718-4 0  9999
2 07846  98.5832 339.7375 0146178 321.7589  37.3307 14.52005427681010

Verfolge DELTA 1 DEB in Echtzeit mit AllMySat

Download on the App Store